Find Starlink 38314

NORAD ID: 100388 Int'l Des: 2026-190 Owner: SPXS Country: US Constellation: starlink operational

現在のビュー

3D地球を読み込み中...

About Starlink 38314

Starlink 38314 (NORAD 100388) is a starlink constellation satellite launched Aug 19, 2026 by SPXS of US. with a mass of 575.00 kg.

次回通過

Passes for default location (London). Set your location on the main map for personalized predictions.

高度履歴

Loading altitude history...

軌道要素

1 A0388U 26190T 26262.88487667 .00019173 00000-0 35301-3 0 9995
2 A0388 97.2848 116.9794 0001697 88.6360 271.5085 15.49214452 6269
Epoch: Sep 19, 2026 • Age: 17 hours

現在のステータス

高度 431.1 km
遠地点 / 近地点 N/A
速度 7.66 km/s
衛星直下点 79.45°N, 120.64°E
打ち上げ日 Aug 19, 2026
運用期間 32 days
タイプ internet

技術仕様

分類 Payload
質量 575.00 kg
乾燥質量 530.00 kg
長さ 0.30 m
スパン 29.00 m
形状 ? Box + pan
製造者 SPXS
バスタイプ Starlink V2MO
フェーズステータス In Orbit
所有者/国 SPXS/US

Most Searched